Погода в Наньпине

Китай     26°38′54″N   118°10′49″E
темп.,
°C
ветер,
м/с
пор.,
м/с
влажн.,
%
обл.,
%
осадки,
мм/ч
давл.,
гПа
погр.,
м
14 апреля, ср
ср1423:00+19ююв2397100 0.7 1016177
02:00+16ююв2395100 1.1 1015231
05:00+16ю1295100 0.9 1015223
08:00+16юв129698 4.9 1017209
11:00+16ююв2393100 1.3 1018363
14:00+17ююв2386100 1.3 1015540
17:00+15ююв2390100 0.0 1015283
20:00+14юв2396100 2.3 1017207
15 апреля, чт
чт1523:00+13юв2396100 1.9 1018233
02:00+12вюв1297100 8.4 1016227
05:00+12юв1297100 3.9 1016198
08:00+14ююв1290100 4.8 1017417
11:00+14ююв2291100 0.5 1017358
14:00+16юв0185100 1.1 1014353
17:00+15с2296100 0.6 1015106
20:00+15ссв1198100 3.0 101764
16 апреля, пт
пт1623:00+14зсз1198100 0.5 101730
02:00+15с1299100 0.5 1017128
05:00+15ссв129863 0.2 101793
08:00+16сз119256 0.2 1018283
11:00+22ссз117089 0.0 1017934
14:00+21ссз227387 0.1 1015750
17:00+22ссз1273100 0.1 1015619
20:00+18с2292100 0.3 101844
17 апреля, сб
сб1723:00+17ссз1298100 1.2 1019101
02:00+17ссз2398100 2.8 1018185
05:00+16св1197100 1.4 101953
08:00+17всв0195100 1.5 1021100
11:00+19св128695 0.4 1021593
14:00+18с129095 1.1 1020283
17:00+19в1281100 0.1 1019284
20:00+17вюв1187100 0.1 102011
18 апреля, вс
вс1823:00+17вюв1185100 0.0 102116
02:00+16юв1187100 0.0 102016
05:00+14вюв2188100 0.0 102022
08:00+17юв127075 0.0 1021338
11:00+22юв124996 0.0 10191077
14:00+24ююв234384 0.0 10161619
17:00+22ю2455100 0.0 1014720
20:00+17юв2272100 0.0 101640